Simultaneous Nadir Overpasses (SNOs) Predictions

Prediction of SNOs between NOAA-19 and TERRA Satellite Orbit:

Table of predicted SNOs for the next 14.0 days since TLE Epoch: 12/1/2012
Index Date (NOAA-19) Time (NOAA-19) NOAA-19 Lat,Lon Date (TERRA) Time (TERRA) TERRA Lat,Lon Distance(km) Time Diff (sec)
1 12/03/2012 00:32:54 69.86, 170.30 12/03/2012 00:34:03 69.74, 171.85 60.83 69
2 12/03/2012 01:23:42 -69.10, -21.34 12/03/2012 01:23:43 -69.08, -21.40 3.45 1
3 12/03/2012 02:14:30 68.33, 146.94 12/03/2012 02:13:20 68.42, 145.42 63.33 70
4 12/05/2012 05:17:17 69.46, 99.78 12/05/2012 05:18:27 69.40, 100.31 21.94 70
5 12/05/2012 06:08:12 -69.10, -92.46 12/05/2012 06:08:00 -69.12, -92.42 2.86 12
6 12/07/2012 10:01:43 69.24, 28.99 12/07/2012 10:02:48 69.21, 28.99 3.11 65
7 12/07/2012 10:52:41 -69.06,-163.52 12/07/2012 10:52:19 -69.04,-163.59 3.43 22
8 12/09/2012 14:46:12 69.19, -42.06 12/09/2012 14:47:06 69.17, -42.13 3.04 54
9 12/09/2012 15:37:10 -69.04, 125.39 12/09/2012 15:36:36 -69.07, 125.37 2.81 34
10 12/11/2012 19:30:42 69.20,-113.20 12/11/2012 19:31:23 69.18,-113.18 2.43 41
11 12/11/2012 20:21:39 -69.04, 54.28 12/11/2012 20:20:54 -69.02, 54.24 2.29 45
12 12/14/2012 00:15:11 69.19, 175.71 12/14/2012 00:15:40 69.18, 175.75 1.68 29
13 12/14/2012 01:06:08 -69.05, -16.85 12/14/2012 01:05:11 -69.03, -16.82 2.96 57




NCC Satellite Simultaneous Nadir Overpasses (SNOs) Prediction Service
